DAL7931 KATL-KJFK

Flight info

Callsign DAL7931
Flight time 1h 48m
Altitude 35000
Route PHIIL3 HRTWL Q64 SAWED Q108 SIE CAMRN5
Aircraft A320/M-SDE3FGHIRWY/LB1

Departure

Time 2026-05-09 02:29
Airport Hartsfield Jackson Atlanta International Airport (KATL)

Arrival

Time 2026-05-09 04:18
Airport John F. Kennedy International Airport (KJFK)
Time Latitude Longitude Altitude Speed Heading
2026-05-09 02:14 33.63766 -84.43862 1035 ft 0 kts 267°
2026-05-09 02:17 33.63766 -84.43857 1035 ft 2 kts 267°
2026-05-09 02:18 33.63767 -84.43839 1035 ft 2 kts 267°
2026-05-09 02:18 33.63767 -84.43821 1035 ft 2 kts 267°
2026-05-09 02:18 33.63768 -84.43804 1035 ft 2 kts 267°
2026-05-09 02:18 33.63772 -84.43786 1035 ft 2 kts 206°
2026-05-09 02:19 33.63777 -84.43783 1035 ft 0 kts 189°
2026-05-09 02:20 33.63761 -84.43786 1035 ft 7 kts 186°
2026-05-09 02:21 33.63716 -84.43786 1035 ft 6 kts 175°
2026-05-09 02:21 33.63668 -84.43766 1035 ft 8 kts 156°
2026-05-09 02:21 33.63615 -84.43751 1035 ft 9 kts 161°
2026-05-09 02:21 33.63582 -84.43674 1035 ft 12 kts 92°
2026-05-09 02:22 33.63582 -84.43579 1035 ft 10 kts 90°
2026-05-09 02:22 33.63582 -84.43499 1035 ft 9 kts 89°
2026-05-09 02:22 33.63583 -84.43435 1034 ft 7 kts 90°
2026-05-09 02:22 33.63583 -84.43379 1034 ft 6 kts 89°
2026-05-09 02:23 33.63583 -84.43342 1034 ft 2 kts 89°
2026-05-09 02:23 33.63584 -84.43325 1034 ft 10 kts 88°
2026-05-09 02:23 33.63587 -84.43203 1035 ft 18 kts 84°
2026-05-09 02:23 33.63589 -84.43030 1035 ft 23 kts 88°
2026-05-09 02:24 33.63585 -84.42845 1035 ft 19 kts 91°
2026-05-09 02:24 33.63582 -84.42694 1036 ft 17 kts 90°
2026-05-09 02:24 33.63582 -84.42558 1036 ft 15 kts 90°
2026-05-09 02:24 33.63585 -84.42419 1036 ft 18 kts 86°
2026-05-09 02:25 33.63583 -84.42262 1036 ft 18 kts 92°
2026-05-09 02:25 33.63581 -84.42116 1036 ft 17 kts 90°
2026-05-09 02:25 33.63582 -84.41981 1035 ft 15 kts 89°
2026-05-09 02:25 33.63584 -84.41855 1035 ft 15 kts 90°
2026-05-09 02:26 33.63583 -84.41736 1035 ft 14 kts 91°
2026-05-09 02:26 33.63582 -84.41625 1035 ft 13 kts 90°
2026-05-09 02:26 33.63582 -84.41524 1034 ft 12 kts 90°
2026-05-09 02:26 33.63583 -84.41416 1034 ft 17 kts 90°
2026-05-09 02:27 33.63582 -84.41274 1035 ft 16 kts 90°
2026-05-09 02:27 33.63582 -84.41150 1035 ft 13 kts 89°
2026-05-09 02:27 33.63583 -84.41037 1035 ft 14 kts 89°
2026-05-09 02:27 33.63557 -84.40925 1035 ft 13 kts 140°
2026-05-09 02:28 33.63485 -84.40911 1036 ft 8 kts 183°
2026-05-09 02:28 33.63472 -84.40936 1036 ft 0 kts 267°
2026-05-09 02:28 33.63471 -84.40968 1036 ft 24 kts 268°
2026-05-09 02:28 33.63470 -84.41758 1035 ft 113 kts 270°
2026-05-09 02:29 33.63469 -84.42911 1038 ft 161 kts 270°
2026-05-09 02:29 33.63468 -84.43869 1195 ft 175 kts 270°
2026-05-09 02:29 33.63471 -84.45833 2041 ft 177 kts 270°
2026-05-09 02:29 33.63450 -84.46829 2538 ft 176 kts 265°
2026-05-09 02:30 33.63117 -84.48273 2977 ft 190 kts 244°
2026-05-09 02:30 33.62478 -84.49770 3186 ft 214 kts 244°
2026-05-09 02:30 33.61766 -84.51451 3500 ft 238 kts 244°
2026-05-09 02:30 33.60989 -84.53293 3973 ft 253 kts 244°
2026-05-09 02:31 33.60188 -84.55199 4734 ft 258 kts 244°
2026-05-09 02:31 33.59233 -84.57036 5510 ft 264 kts 227°
2026-05-09 02:31 33.57687 -84.58235 6264 ft 271 kts 199°
2026-05-09 02:31 33.55798 -84.58499 7019 ft 277 kts 182°
2026-05-09 02:32 33.53861 -84.58496 7787 ft 280 kts 181°
2026-05-09 02:32 33.51900 -84.58484 8535 ft 283 kts 181°
2026-05-09 02:32 33.49921 -84.58459 9269 ft 287 kts 179°
2026-05-09 02:32 33.47979 -84.57864 9953 ft 294 kts 152°
2026-05-09 02:33 33.46437 -84.56241 10562 ft 304 kts 126°
2026-05-09 02:33 33.45643 -84.53820 10748 ft 327 kts 96°
2026-05-09 02:33 33.45525 -84.51005 10881 ft 350 kts 91°
2026-05-09 02:33 33.45519 -84.48015 11122 ft 367 kts 89°
2026-05-09 02:34 33.45551 -84.44924 11659 ft 373 kts 89°
2026-05-09 02:34 33.45583 -84.41802 12278 ft 377 kts 89°
2026-05-09 02:34 33.45603 -84.38647 12887 ft 381 kts 90°
2026-05-09 02:34 33.45618 -84.35462 13493 ft 384 kts 87°
2026-05-09 02:35 33.45962 -84.32286 14070 ft 387 kts 76°
2026-05-09 02:35 33.46708 -84.29180 14648 ft 390 kts 72°
2026-05-09 02:35 33.47501 -84.26068 15205 ft 393 kts 72°
2026-05-09 02:35 33.48300 -84.22927 15760 ft 396 kts 72°
2026-05-09 02:36 33.49104 -84.19757 16300 ft 399 kts 72°
2026-05-09 02:36 33.49912 -84.16562 16831 ft 402 kts 72°
2026-05-09 02:36 33.50722 -84.13346 17352 ft 405 kts 73°
2026-05-09 02:36 33.51539 -84.10103 17867 ft 408 kts 73°
2026-05-09 02:37 33.52358 -84.06840 18375 ft 411 kts 73°
2026-05-09 02:37 33.53184 -84.03549 18873 ft 414 kts 73°
2026-05-09 02:37 33.54017 -84.00230 19355 ft 417 kts 73°
2026-05-09 02:37 33.54855 -83.96895 19819 ft 420 kts 73°
2026-05-09 02:38 33.55701 -83.93534 20267 ft 422 kts 73°
2026-05-09 02:38 33.55977 -83.92437 20412 ft 423 kts 73°
2026-05-09 02:39 33.56285 -83.91254 20570 ft 424 kts 70°
2026-05-09 02:39 33.57282 -83.87920 20990 ft 426 kts 71°
2026-05-09 02:39 33.58176 -83.84514 21403 ft 429 kts 73°
2026-05-09 02:39 33.59155 -83.81126 21798 ft 431 kts 67°
2026-05-09 02:40 33.60302 -83.77793 22185 ft 434 kts 66°
2026-05-09 02:40 33.61502 -83.74458 22559 ft 436 kts 65°
2026-05-09 02:40 33.62746 -83.71130 22920 ft 439 kts 65°
2026-05-09 02:40 33.64023 -83.67803 23268 ft 441 kts 64°
2026-05-09 02:41 33.65279 -83.64434 23605 ft 443 kts 69°
2026-05-09 02:41 33.66173 -83.60890 23932 ft 446 kts 77°
2026-05-09 02:41 33.66866 -83.57251 24259 ft 448 kts 77°
2026-05-09 02:41 33.67549 -83.53600 24564 ft 450 kts 77°
2026-05-09 02:42 33.68230 -83.49928 24874 ft 452 kts 77°
2026-05-09 02:42 33.68912 -83.46233 25175 ft 454 kts 77°
2026-05-09 02:42 33.69597 -83.42530 25465 ft 456 kts 77°
2026-05-09 02:42 33.70289 -83.38805 25751 ft 457 kts 77°
2026-05-09 02:43 33.70985 -83.35070 26028 ft 459 kts 77°
2026-05-09 02:43 33.71681 -83.31326 26294 ft 461 kts 77°
2026-05-09 02:43 33.72381 -83.27562 26556 ft 463 kts 77°
2026-05-09 02:43 33.73083 -83.23782 26804 ft 464 kts 77°
2026-05-09 02:44 33.73785 -83.19983 27040 ft 466 kts 77°
2026-05-09 02:44 33.74592 -83.16211 27268 ft 467 kts 71°
2026-05-09 02:44 33.75825 -83.12595 27488 ft 468 kts 62°
2026-05-09 02:44 33.77466 -83.09211 27701 ft 469 kts 57°
2026-05-09 02:45 33.79202 -83.05880 27914 ft 471 kts 57°
2026-05-09 02:45 33.80940 -83.02535 28113 ft 472 kts 57°
2026-05-09 02:45 33.82674 -82.99186 28383 ft 472 kts 57°
2026-05-09 02:45 33.84404 -82.95833 28671 ft 471 kts 57°
2026-05-09 02:46 33.86127 -82.92492 28959 ft 470 kts 57°
2026-05-09 02:46 33.87847 -82.89149 29234 ft 470 kts 57°
2026-05-09 02:46 33.89543 -82.85852 29500 ft 469 kts 57°
2026-05-09 02:46 33.91258 -82.82514 29766 ft 469 kts 57°
2026-05-09 02:47 33.92996 -82.79132 30044 ft 468 kts 57°
2026-05-09 02:47 33.94684 -82.75847 30308 ft 467 kts 57°
2026-05-09 02:47 33.96390 -82.72524 30574 ft 467 kts 58°
2026-05-09 02:47 33.98098 -82.69191 30838 ft 466 kts 58°
2026-05-09 02:48 33.99798 -82.65869 31102 ft 466 kts 58°
2026-05-09 02:48 34.01487 -82.62544 31364 ft 465 kts 58°
2026-05-09 02:48 34.03167 -82.59217 31609 ft 465 kts 58°
2026-05-09 02:48 34.04844 -82.55887 31859 ft 464 kts 58°
2026-05-09 02:49 34.06518 -82.52562 32109 ft 464 kts 58°
2026-05-09 02:49 34.08190 -82.49242 32346 ft 463 kts 58°
2026-05-09 02:49 34.09863 -82.45918 32592 ft 463 kts 58°
2026-05-09 02:49 34.11534 -82.42597 32828 ft 462 kts 58°
2026-05-09 02:50 34.13203 -82.39285 33060 ft 462 kts 58°
2026-05-09 02:50 34.14867 -82.35972 33291 ft 462 kts 58°
2026-05-09 02:50 34.16528 -82.32656 33534 ft 461 kts 58°
2026-05-09 02:50 34.18185 -82.29343 33747 ft 461 kts 58°
2026-05-09 02:51 34.19840 -82.26034 33974 ft 460 kts 58°
2026-05-09 02:51 34.21498 -82.22724 34194 ft 460 kts 58°
2026-05-09 02:51 34.23148 -82.19423 34412 ft 460 kts 58°
2026-05-09 02:51 34.24802 -82.16113 34627 ft 459 kts 58°
2026-05-09 02:52 34.26454 -82.12813 34832 ft 459 kts 58°
2026-05-09 02:52 34.28112 -82.09518 34976 ft 459 kts 58°
2026-05-09 02:52 34.29780 -82.06216 35010 ft 461 kts 58°
2026-05-09 02:53 34.33128 -81.99580 35005 ft 462 kts 58°
2026-05-09 02:53 34.36468 -81.92930 35005 ft 463 kts 58°
2026-05-09 02:54 34.39809 -81.86272 35006 ft 463 kts 58°
2026-05-09 02:54 34.43139 -81.79602 35008 ft 463 kts 58°
2026-05-09 02:55 34.46468 -81.72932 35010 ft 463 kts 58°
2026-05-09 02:55 34.49795 -81.66253 35010 ft 463 kts 58°
2026-05-09 02:56 34.53096 -81.59602 35009 ft 463 kts 58°
2026-05-09 02:56 34.56411 -81.52917 35009 ft 463 kts 58°
2026-05-09 02:57 34.59725 -81.46223 35010 ft 463 kts 58°
2026-05-09 02:57 34.63034 -81.39531 35011 ft 462 kts 58°
2026-05-09 02:58 34.66339 -81.32832 35011 ft 462 kts 58°
2026-05-09 02:58 34.69647 -81.26121 35009 ft 462 kts 58°
2026-05-09 02:59 34.72946 -81.19413 35014 ft 463 kts 58°
2026-05-09 02:59 34.76238 -81.12692 35012 ft 463 kts 58°
2026-05-09 03:00 34.79510 -81.05951 35006 ft 463 kts 62°
2026-05-09 03:00 34.82207 -80.98837 35004 ft 463 kts 65°
2026-05-09 03:01 34.84846 -80.91686 35012 ft 463 kts 65°
2026-05-09 03:01 34.87486 -80.84538 35013 ft 463 kts 65°
2026-05-09 03:02 34.90121 -80.77373 35007 ft 463 kts 65°
2026-05-09 03:02 34.92747 -80.70207 35002 ft 463 kts 65°
2026-05-09 03:03 34.95371 -80.63030 35006 ft 463 kts 65°
2026-05-09 03:03 34.97998 -80.55855 35007 ft 463 kts 65°
2026-05-09 03:04 35.00619 -80.48676 35005 ft 463 kts 65°
2026-05-09 03:04 35.03245 -80.41496 35014 ft 463 kts 65°
2026-05-09 03:05 35.05838 -80.34356 35015 ft 463 kts 65°
2026-05-09 03:05 35.08452 -80.27111 35008 ft 463 kts 65°
2026-05-09 03:06 35.11055 -80.19913 35014 ft 463 kts 65°
2026-05-09 03:06 35.13651 -80.12717 35008 ft 463 kts 66°
2026-05-09 03:07 35.16240 -80.05505 35012 ft 463 kts 66°
2026-05-09 03:07 35.18814 -79.98298 35012 ft 463 kts 66°
2026-05-09 03:08 35.21403 -79.91090 35010 ft 463 kts 66°
2026-05-09 03:08 35.23972 -79.83925 35009 ft 463 kts 66°
2026-05-09 03:09 35.26565 -79.76663 35008 ft 463 kts 66°
2026-05-09 03:09 35.29138 -79.69434 35010 ft 463 kts 66°
2026-05-09 03:10 35.31272 -79.63423 35001 ft 463 kts 66°
2026-05-09 03:10 35.34247 -79.55009 35006 ft 463 kts 66°
2026-05-09 03:11 35.36806 -79.47770 35010 ft 463 kts 66°
2026-05-09 03:11 35.38948 -79.41699 35006 ft 463 kts 66°
2026-05-09 03:12 35.41504 -79.34454 35010 ft 463 kts 66°
2026-05-09 03:12 35.44050 -79.27205 35008 ft 463 kts 66°
2026-05-09 03:13 35.47871 -79.16324 35009 ft 463 kts 66°
2026-05-09 03:13 35.50411 -79.09065 35005 ft 463 kts 66°
2026-05-09 03:14 35.52938 -79.01796 35012 ft 463 kts 66°
2026-05-09 03:14 35.55457 -78.94525 35009 ft 463 kts 66°
2026-05-09 03:15 35.57981 -78.87252 35004 ft 463 kts 66°
2026-05-09 03:15 35.60499 -78.79970 35006 ft 463 kts 66°
2026-05-09 03:16 35.63015 -78.72689 35005 ft 463 kts 66°
2026-05-09 03:16 35.65526 -78.65405 35003 ft 463 kts 66°
2026-05-09 03:17 35.68029 -78.58112 35004 ft 463 kts 66°
2026-05-09 03:17 35.70524 -78.50810 35004 ft 463 kts 66°
2026-05-09 03:18 35.73014 -78.43505 35005 ft 463 kts 67°
2026-05-09 03:18 35.75497 -78.36199 35011 ft 463 kts 67°
2026-05-09 03:19 35.77980 -78.28889 35004 ft 463 kts 67°
2026-05-09 03:19 35.80463 -78.21575 35012 ft 463 kts 67°
2026-05-09 03:20 35.82940 -78.14257 35009 ft 463 kts 67°
2026-05-09 03:20 35.85392 -78.06980 35008 ft 463 kts 67°
2026-05-09 03:21 35.87858 -77.99653 35005 ft 463 kts 67°
2026-05-09 03:21 35.90322 -77.92327 35008 ft 463 kts 67°
2026-05-09 03:22 35.92782 -77.84995 35007 ft 463 kts 67°
2026-05-09 03:22 35.95240 -77.77662 35005 ft 462 kts 67°
2026-05-09 03:23 35.98003 -77.70511 35010 ft 461 kts 56°
2026-05-09 03:23 36.02104 -77.64463 35006 ft 460 kts 46°
2026-05-09 03:24 36.06446 -77.58664 35001 ft 460 kts 46°
2026-05-09 03:24 36.10780 -77.52834 35006 ft 460 kts 46°
2026-05-09 03:25 36.15104 -77.46997 35008 ft 460 kts 46°
2026-05-09 03:25 36.19430 -77.41157 35010 ft 460 kts 46°
2026-05-09 03:26 36.23760 -77.35319 35000 ft 460 kts 46°
2026-05-09 03:26 36.28088 -77.29464 35005 ft 460 kts 46°
2026-05-09 03:27 36.32506 -77.23730 35001 ft 459 kts 41°
2026-05-09 03:27 36.37258 -77.18431 35001 ft 460 kts 41°
2026-05-09 03:28 36.42014 -77.13121 35005 ft 460 kts 41°
2026-05-09 03:28 36.46761 -77.07804 35006 ft 460 kts 41°
2026-05-09 03:29 36.51503 -77.02478 35005 ft 460 kts 41°
2026-05-09 03:29 36.56246 -76.97142 35010 ft 460 kts 41°
2026-05-09 03:30 36.60985 -76.91805 35002 ft 460 kts 41°
2026-05-09 03:30 36.65722 -76.86458 35005 ft 460 kts 41°
2026-05-09 03:31 36.70457 -76.81102 35001 ft 460 kts 41°
2026-05-09 03:31 36.75191 -76.75740 35002 ft 460 kts 41°
2026-05-09 03:32 36.79918 -76.70369 35008 ft 460 kts 41°
2026-05-09 03:32 36.84639 -76.64990 35010 ft 460 kts 41°
2026-05-09 03:33 36.89364 -76.59612 35006 ft 460 kts 41°
2026-05-09 03:33 36.94093 -76.54229 35004 ft 460 kts 41°
2026-05-09 03:34 36.98810 -76.48837 35007 ft 460 kts 41°
2026-05-09 03:34 37.03535 -76.43438 35007 ft 460 kts 41°
2026-05-09 03:35 37.08250 -76.38042 35004 ft 460 kts 41°
2026-05-09 03:35 37.12971 -76.32629 35004 ft 460 kts 41°
2026-05-09 03:36 37.17678 -76.27209 35007 ft 460 kts 41°
2026-05-09 03:36 37.22353 -76.21817 35006 ft 460 kts 41°
2026-05-09 03:37 37.27091 -76.16349 35005 ft 460 kts 41°
2026-05-09 03:37 37.31786 -76.10902 35003 ft 460 kts 42°
2026-05-09 03:38 37.36479 -76.05448 35013 ft 460 kts 42°
2026-05-09 03:38 37.41174 -75.99992 35009 ft 460 kts 41°
2026-05-09 03:39 37.45871 -75.94541 35005 ft 460 kts 41°
2026-05-09 03:39 37.50568 -75.89074 35007 ft 460 kts 42°
2026-05-09 03:40 37.55580 -75.84136 35000 ft 457 kts 29°
2026-05-09 03:40 37.61057 -75.80042 35003 ft 458 kts 30°
2026-05-09 03:41 37.66539 -75.75947 34999 ft 458 kts 30°
2026-05-09 03:41 37.72014 -75.71842 35004 ft 458 kts 30°
2026-05-09 03:42 37.77452 -75.67749 35000 ft 458 kts 30°
2026-05-09 03:42 37.82960 -75.63598 35006 ft 458 kts 30°
2026-05-09 03:43 37.88343 -75.59280 35001 ft 458 kts 33°
2026-05-09 03:43 37.93569 -75.54636 35009 ft 459 kts 34°
2026-05-09 03:44 37.98769 -75.49956 35001 ft 459 kts 34°
2026-05-09 03:44 38.04010 -75.45348 35004 ft 458 kts 33°
2026-05-09 03:45 38.09321 -75.40866 35004 ft 458 kts 31°
2026-05-09 03:45 38.14713 -75.36548 35006 ft 458 kts 31°
2026-05-09 03:46 38.20101 -75.32224 35008 ft 458 kts 31°
2026-05-09 03:46 38.25710 -75.28451 35001 ft 456 kts 18°
2026-05-09 03:47 38.31871 -75.26708 35005 ft 454 kts
2026-05-09 03:47 38.38102 -75.25404 35002 ft 454 kts
2026-05-09 03:48 38.44338 -75.24103 35007 ft 454 kts
2026-05-09 03:48 38.50574 -75.22788 35003 ft 454 kts
2026-05-09 03:49 38.56811 -75.21481 35000 ft 454 kts
2026-05-09 03:49 38.63053 -75.20166 35004 ft 454 kts
2026-05-09 03:50 38.69214 -75.18379 34999 ft 456 kts 20°
2026-05-09 03:50 38.74711 -75.14361 35011 ft 458 kts 37°
2026-05-09 03:51 38.78911 -75.10227 35000 ft 458 kts 36°
2026-05-09 03:51 38.83976 -75.05266 34997 ft 458 kts 36°
2026-05-09 03:52 38.89047 -75.00294 35001 ft 459 kts 36°
2026-05-09 03:52 38.94110 -74.95306 35003 ft 459 kts 36°
2026-05-09 03:53 38.99171 -74.90308 35001 ft 459 kts 37°
2026-05-09 03:53 39.01698 -74.87809 34844 ft 457 kts 37°
2026-05-09 03:53 39.04210 -74.85325 34356 ft 452 kts 36°
2026-05-09 03:54 39.06683 -74.82880 33925 ft 446 kts 36°
2026-05-09 03:54 39.09129 -74.80461 33424 ft 441 kts 36°
2026-05-09 03:54 39.11529 -74.78035 32925 ft 437 kts 38°
2026-05-09 03:54 39.13874 -74.75554 32423 ft 434 kts 39°
2026-05-09 03:55 39.16166 -74.73051 31918 ft 430 kts 39°
2026-05-09 03:55 39.18425 -74.70548 31425 ft 427 kts 40°
2026-05-09 03:55 39.20673 -74.68056 30922 ft 424 kts 39°
2026-05-09 03:55 39.22910 -74.65598 30421 ft 421 kts 39°
2026-05-09 03:56 39.25139 -74.63171 29922 ft 418 kts 39°
2026-05-09 03:56 39.27361 -74.60765 29421 ft 416 kts 39°
2026-05-09 03:56 39.29571 -74.58381 28921 ft 413 kts 39°
2026-05-09 03:56 39.31768 -74.56009 28420 ft 410 kts 39°
2026-05-09 03:57 39.33950 -74.53645 27925 ft 408 kts 39°
2026-05-09 03:57 39.36114 -74.51290 27419 ft 406 kts 39°
2026-05-09 03:57 39.38266 -74.48943 26871 ft 405 kts 39°
2026-05-09 03:57 39.40424 -74.46591 26236 ft 406 kts 39°
2026-05-09 03:58 39.42589 -74.44235 25607 ft 407 kts 39°
2026-05-09 03:58 39.44757 -74.41878 24983 ft 407 kts 39°
2026-05-09 03:58 39.46925 -74.39517 24407 ft 406 kts 39°
2026-05-09 03:58 39.49075 -74.37167 23909 ft 403 kts 39°
2026-05-09 03:59 39.51215 -74.34824 23361 ft 402 kts 39°
2026-05-09 03:59 39.53345 -74.32488 22811 ft 401 kts 39°
2026-05-09 03:59 39.55470 -74.30155 22260 ft 400 kts 39°
2026-05-09 03:59 39.57594 -74.27824 21709 ft 400 kts 39°
2026-05-09 04:00 39.59715 -74.25497 21145 ft 399 kts 39°
2026-05-09 04:00 39.61827 -74.23176 20606 ft 398 kts 39°
2026-05-09 04:00 39.63938 -74.20855 20054 ft 397 kts 39°
2026-05-09 04:00 39.66040 -74.18543 19516 ft 396 kts 39°
2026-05-09 04:01 39.68142 -74.16231 18951 ft 395 kts 39°
2026-05-09 04:01 39.70232 -74.13927 18400 ft 394 kts 39°
2026-05-09 04:01 39.72316 -74.11630 17849 ft 393 kts 39°
2026-05-09 04:01 39.74397 -74.09337 17297 ft 391 kts 39°
2026-05-09 04:02 39.76468 -74.07051 16748 ft 390 kts 39°
2026-05-09 04:02 39.78529 -74.04770 16196 ft 389 kts 39°
2026-05-09 04:02 39.80584 -74.02488 15644 ft 388 kts 39°
2026-05-09 04:02 39.82632 -74.00213 15092 ft 386 kts 39°
2026-05-09 04:03 39.84771 -73.98126 14538 ft 383 kts 29°
2026-05-09 04:03 39.87099 -73.96465 13988 ft 381 kts 27°
2026-05-09 04:03 39.89420 -73.94829 13438 ft 379 kts 27°
2026-05-09 04:03 39.91728 -73.93202 12892 ft 376 kts 27°
2026-05-09 04:04 39.94004 -73.91593 12630 ft 366 kts 27°
2026-05-09 04:04 39.96185 -73.90042 12488 ft 345 kts 27°
2026-05-09 04:04 39.98245 -73.88576 12149 ft 331 kts 27°
2026-05-09 04:04 40.00245 -73.87157 11523 ft 323 kts 27°
2026-05-09 04:05 40.02171 -73.85806 11194 ft 307 kts 25°
2026-05-09 04:05 40.04069 -73.84593 10644 ft 300 kts 23°
2026-05-09 04:05 40.05948 -73.83474 10200 ft 292 kts 22°
2026-05-09 04:05 40.07764 -73.82419 10035 ft 283 kts 22°
2026-05-09 04:06 40.09556 -73.81384 9663 ft 281 kts 22°
2026-05-09 04:06 40.11338 -73.80350 9346 ft 279 kts 22°
2026-05-09 04:06 40.13101 -73.79316 9044 ft 277 kts 22°
2026-05-09 04:06 40.14853 -73.78279 8745 ft 275 kts 22°
2026-05-09 04:07 40.16592 -73.77244 8449 ft 274 kts 22°
2026-05-09 04:07 40.18327 -73.76209 8151 ft 273 kts 22°
2026-05-09 04:07 40.20048 -73.75178 7857 ft 272 kts 22°
2026-05-09 04:07 40.21741 -73.74158 7567 ft 271 kts 22°
2026-05-09 04:08 40.23470 -73.73117 7266 ft 269 kts 22°
2026-05-09 04:08 40.25173 -73.72096 6977 ft 268 kts 22°
2026-05-09 04:08 40.26865 -73.71081 6686 ft 267 kts 22°
2026-05-09 04:08 40.28554 -73.70067 6397 ft 266 kts 22°
2026-05-09 04:09 40.30235 -73.69056 6100 ft 265 kts 22°
2026-05-09 04:09 40.31907 -73.68049 5823 ft 264 kts 22°
2026-05-09 04:09 40.33552 -73.67062 5539 ft 263 kts 22°
2026-05-09 04:09 40.35210 -73.66064 5254 ft 262 kts 22°
2026-05-09 04:10 40.36861 -73.65069 4970 ft 261 kts 22°
2026-05-09 04:10 40.38506 -73.64080 4689 ft 260 kts 22°
2026-05-09 04:10 40.40150 -73.63089 4477 ft 252 kts 22°
2026-05-09 04:10 40.41703 -73.62150 4343 ft 240 kts 22°
2026-05-09 04:11 40.43172 -73.61261 4127 ft 232 kts 23°
2026-05-09 04:11 40.44630 -73.60378 3912 ft 224 kts 22°
2026-05-09 04:11 40.46039 -73.59526 3793 ft 223 kts 22°
2026-05-09 04:11 40.47421 -73.58690 3676 ft 214 kts 22°
2026-05-09 04:12 40.48752 -73.57884 3583 ft 209 kts 22°
2026-05-09 04:12 40.50086 -73.57136 3496 ft 207 kts 12°
2026-05-09 04:12 40.51490 -73.56913 3403 ft 202 kts 353°
2026-05-09 04:12 40.52846 -73.57319 3301 ft 199 kts 334°
2026-05-09 04:13 40.54001 -73.58277 3063 ft 196 kts 314°
2026-05-09 04:13 40.54826 -73.59670 2863 ft 191 kts 299°
2026-05-09 04:13 40.55495 -73.61138 2680 ft 184 kts 300°
2026-05-09 04:13 40.56140 -73.62550 2477 ft 177 kts 300°
2026-05-09 04:14 40.56751 -73.63887 2390 ft 164 kts 300°
2026-05-09 04:14 40.57317 -73.65128 2232 ft 152 kts 299°
2026-05-09 04:14 40.57840 -73.66277 2088 ft 143 kts 299°
2026-05-09 04:14 40.58340 -73.67373 1890 ft 138 kts 299°
2026-05-09 04:15 40.58828 -73.68446 1719 ft 136 kts 299°
2026-05-09 04:15 40.59313 -73.69511 1535 ft 136 kts 299°
2026-05-09 04:15 40.59798 -73.70577 1357 ft 135 kts 298°
2026-05-09 04:15 40.60273 -73.71621 1181 ft 134 kts 298°
2026-05-09 04:16 40.60753 -73.72676 1003 ft 135 kts 298°
2026-05-09 04:16 40.61233 -73.73732 822 ft 134 kts 298°
2026-05-09 04:16 40.61712 -73.74785 650 ft 135 kts 298°
2026-05-09 04:16 40.62194 -73.75847 464 ft 135 kts 299°
2026-05-09 04:17 40.62676 -73.76913 267 ft 136 kts 300°
2026-05-09 04:17 40.63158 -73.77963 96 ft 134 kts 299°
2026-05-09 04:17 40.63621 -73.78986 32 ft 121 kts 300°
2026-05-09 04:17 40.63986 -73.79793 21 ft 78 kts 301°
2026-05-09 04:18 40.64220 -73.80307 21 ft 57 kts 301°
2026-05-09 04:18 40.64384 -73.80671 21 ft 38 kts 300°
2026-05-09 04:18 40.64463 -73.80804 24 ft 7 kts 270°
2026-05-09 04:18 40.64416 -73.80763 24 ft 15 kts 117°
2026-05-09 04:19 40.64366 -73.80626 21 ft 19 kts 121°
2026-05-09 04:19 40.64349 -73.80481 21 ft 16 kts 54°
2026-05-09 04:19 40.64416 -73.80423 20 ft 9 kts 29°
2026-05-09 04:19 40.64471 -73.80384 20 ft 11 kts 28°
2026-05-09 04:20 40.64493 -73.80310 20 ft 10 kts 115°
2026-05-09 04:20 40.64441 -73.80188 20 ft 18 kts 124°
2026-05-09 04:20 40.64373 -73.80057 22 ft 16 kts 122°
2026-05-09 04:20 40.64306 -73.79912 21 ft 21 kts 130°
2026-05-09 04:21 40.64199 -73.79765 21 ft 23 kts 128°
2026-05-09 04:21 40.64137 -73.79645 21 ft 9 kts 122°
2026-05-09 04:21 40.64043 -73.79436 20 ft 15 kts 121°
2026-05-09 04:22 40.63990 -73.79318 20 ft 13 kts 120°
2026-05-09 04:22 40.64001 -73.79231 20 ft 12 kts 45°
2026-05-09 04:22 40.64067 -73.79166 21 ft 7 kts 359°
2026-05-09 04:22 40.64103 -73.79198 21 ft 8 kts 322°
2026-05-09 04:23 40.64114 -73.79209 21 ft 0 kts 324°